Home   Weather   Boa Vista   Past weeks

Flag for Brazil Past Weather in Boa Vista, Roraima, Brazil — Yesterday and Last 2 Weeks

Now
95 °F

Partly sunny.


Feels Like: 98 °F
Forecast: 80 / 96 °F
Wind: No wind

Location: Boa Vista Aeropor-To

Current Time: Dec 7, 2016 at 2:42:55 pm

Latest Report: Dec 7, 2016 at 2:00 pm


Visibility: N/A

Pressure: 29.80 "Hg

Humidity: 39%

Dew Point: 66 °F

Location of Boa VistaLocation

Past Weather in Boa Vista — Graph

°F

Boa Vista Temperature Yesterday

Maximum temperature yesterday: 95 °F (at 2:00 pm)
Minimum temperature yesterday: 77 °F (at 4:00 am)
Average temperature yesterday: 86 °F

High & Low Weather Summary for the Past Weeks

 TemperatureHumidityPressure
High97 °F (Nov 28, 6:00 am)100% (Nov 23, 12:00 pm)29.95 "Hg (Nov 23, 12:00 pm)
Low32 °F (Nov 23, 12:00 pm)34% (Dec 4, 3:00 pm)29.71 "Hg (Nov 22, 3:00 pm)
Average86 °F64%29.82 "Hg
* Reported Nov 22 1:00 pm — Dec 7 1:00 pm, Boa Vista, Weather by CustomWeather, © 2016

Note: Actual official high and low records may vary slightly from our data, if they occured in-between our weather recording intervals... More about our weather records

Advertising

Boa Vista Weather History for the Previous 24 Hours

Scroll right to see more
 ConditionsComfort  
Time TempWeatherWind HumidityBarometerVisibility
1:00 pm
Wed, Dec 7
95 °FPartly sunny.8 mph39%29.83 "HgN/A
12:00 pm93 °FPartly sunny.10 mph44%29.89 "HgN/A
11:00 am91 °FScattered clouds.10 mph46%29.89 "HgN/A
10:00 am90 °FScattered clouds.7 mph52%29.92 "HgN/A
9:00 am88 °FPassing clouds.15 mph59%29.92 "HgN/A
8:00 am84 °FSunny.10 mph70%29.92 "Hg10 mi
7:00 am79 °FSunny.10 mph84%29.86 "Hg10 mi
6:00 am77 °FSunny.7 mph83%29.83 "Hg10 mi
5:00 am79 °FClear.5 mph79%29.83 "Hg10 mi
4:00 am79 °FClear.7 mph79%29.80 "Hg10 mi
3:00 am81 °FClear.7 mph74%29.80 "Hg10 mi
2:00 am81 °FClear.3 mph74%29.80 "Hg10 mi
1:00 am81 °FClear.5 mph74%29.80 "Hg10 mi
12:00 am82 °FPassing clouds.7 mph70%29.83 "HgN/A
11:00 pm
Tue, Dec 6
84 °FClear.8 mph62%29.83 "Hg10 mi
10:00 pm84 °FPassing clouds.8 mph62%29.83 "HgN/A
9:00 pm84 °FClear.8 mph62%29.83 "Hg10 mi
8:00 pm86 °FClear.7 mph62%29.83 "Hg10 mi
7:00 pm91 °FClear.5 mph46%29.80 "Hg10 mi
6:00 pm93 °FPassing clouds.6 mph44%29.80 "HgN/A
5:00 pm95 °FScattered clouds.9 mph39%29.77 "HgN/A
4:00 pm95 °FScattered clouds.13 mph41%29.80 "HgN/A
3:00 pm95 °FPartly sunny.9 mph41%29.80 "HgN/A
2:00 pm95 °FPartly sunny.12 mph41%29.83 "HgN/A
Weather by CustomWeather, © 2016

See weather overviewHow to use our weather pages